This is the latest recevied weather packets stored in our database for station/object KF4LQQ-13. If no packets are shown the sender has not sent any weather packets the latest 1 day(s).
| Time | Temp. | Humidity | Pressure | Rain* | Wind** | Luminosity | Snow |
|---|---|---|---|---|---|---|---|
| 1777989976 | 23.33° C | - | 1013.2 hPa | 0 mm | 4.02 m/s, 59° | - | - |
| 1777989375 | 23.33° C | - | 1013.2 hPa | 0 mm | 3.58 m/s, 45° | - | - |
| 1777988775 | 22.78° C | - | 1013.1 hPa | 0 mm | 3.58 m/s, 94° | - | - |
| 1777988175 | 22.78° C | - | 1013.1 hPa | 0 mm | 3.13 m/s, 82° | - | - |
| 1777987574 | 22.78° C | - | 1013.1 hPa | 0 mm | 3.13 m/s, 98° | - | - |
| 1777986974 | 22.22° C | - | 1013.1 hPa | 0 mm | 3.58 m/s, 101° | - | - |
| 1777986374 | 22.22° C | - | 1013.1 hPa | 0 mm | 2.68 m/s, 83° | - | - |
| 1777985773 | 21.67° C | - | 1013 hPa | 0 mm | 2.68 m/s, 96° | - | - |
| 1777985173 | 21.67° C | - | 1013.1 hPa | 0 mm | 3.13 m/s, 84° | - | - |
| 1777984572 | 21.67° C | - | 1013.1 hPa | 0 mm | 2.68 m/s, 98° | - | - |
| 1777983972 | 21.11° C | - | 1013.1 hPa | 0 mm | 3.58 m/s, 103° | - | - |
| 1777983371 | 21.11° C | - | 1013 hPa | 0 mm | 3.13 m/s, 97° | - | - |
| 1777982771 | 21.11° C | - | 1012.9 hPa | 0 mm | 2.24 m/s, 108° | - | - |
| 1777982168 | 21.11° C | - | 1012.8 hPa | 0 mm | 3.13 m/s, 105° | - | - |
| 1777981567 | 21.11° C | - | 1012.6 hPa | 0 mm | 2.68 m/s, 72° | - | - |
| 1777980966 | 21.11° C | - | 1012.4 hPa | 0 mm | 2.24 m/s, 113° | - | - |
| 1777980366 | 21.11° C | - | 1012.3 hPa | 0 mm | 1.79 m/s, 111° | - | - |
| 1777979935 | 21.11° C | - | 1012.3 hPa | 0 mm | 2.24 m/s, 108° | - | - |
| 1777979765 | 21.11° C | - | 1012.3 hPa | 0 mm | 2.24 m/s, 108° | - | - |
| 1777979161 | 21.11° C | - | 1012.2 hPa | 0 mm | 1.79 m/s, 101° | - | - |
| 1777978558 | 21.11° C | - | 1012.2 hPa | 0 mm | 1.79 m/s, 107° | - | - |
| 1777977358 | 21.11° C | - | 1011.9 hPa | 0 mm | 2.24 m/s, 97° | - | - |
| 1777976757 | 21.11° C | - | 1011.9 hPa | 0 mm | 1.79 m/s, 115° | - | - |
| 1777976157 | 21.11° C | - | 1011.9 hPa | 0 mm | 1.79 m/s, 104° | - | - |
| 1777975557 | 21.67° C | - | 1011.9 hPa | 0 mm | 2.24 m/s, 63° | - | - |
* Rain since midnight (hover to see other rain measurements)
** Current wind speed in m/s (hover to see current wind gust speed)